WI5ARD Weather Reports


time (UTC)temp
C
wind
direction
speed
KPH
gust
KPH
rain 1hr
cm
rain 24hr
cm
rain mn
cm
humidity
%
barometer
mb
20260504141022 20 259 3.2 6.4 0.00 0.00 0.00 67 1019.8
20260504140518 20 0 1.6 4.8 0.00 0.00 0.00 70 1019.8
20260504130519 16 0 0.0 3.2 0.00 0.00 0.00 91 1019.8
20260504110521 11 0 0.0 0.0 0.00 0.00 0.00 92 1019.1
20260504100518 11 0 0.0 0.0 0.00 0.00 0.00 91 1019.1
20260504081538 12 0 0.0 0.0 0.00 0.00 0.00 91 1019.2
20260504081022 12 0 0.0 0.0 0.00 0.00 0.00 91 1019.3
20260504080522 12 0 0.0 0.0 0.00 0.00 0.00 91 1019.3
20260504050519 13 0 0.0 0.0 0.00 0.00 0.00 87 1020.6
20260504045519 13 0 0.0 0.0 0.00 0.00 0.00 86 1020.4
20260504045019 13 0 0.0 0.0 0.00 0.00 0.00 86 1020.5
20260504044543 13 0 0.0 0.0 0.00 0.00 0.00 86 1020.6
20260504044019 13 0 0.0 0.0 0.00 0.00 0.00 86 1020.6
20260504043519 13 0 0.0 0.0 0.00 0.00 0.00 86 1020.6
20260504043036 13 0 0.0 3.2 0.00 0.00 0.00 85 1020.6
20260504042518 13 0 0.0 3.2 0.00 0.00 0.00 85 1020.7
20260504042016 13 144 0.0 0.0 0.00 0.00 0.00 85 1020.7
20260504041536 13 0 0.0 0.0 0.00 0.00 0.00 84 1020.7
20260504041017 14 0 0.0 3.2 0.00 0.00 0.00 84 1020.6
20260504040519 14 0 0.0 3.2 0.00 0.00 0.00 84 1020.7
20260504040044 14 0 0.0 1.6 0.00 0.00 0.00 84 1020.7
20260504035520 14 0 0.0 0.0 0.00 0.00 0.00 83 1020.7
20260504035017 14 0 0.0 1.6 0.00 0.00 0.00 83 1020.6
20260504034536 14 0 0.0 1.6 0.00 0.00 0.00 83 1020.5
20260504034020 15 0 0.0 1.6 0.00 0.00 0.00 82 1020.6
20260504033521 15 0 0.0 0.0 0.00 0.00 0.00 81 1020.6
20260504033037 15 0 0.0 3.2 0.00 0.00 0.00 81 1020.7
20260504032521 15 0 0.0 3.2 0.00 0.00 0.00 81 1020.7
20260504032021 15 144 0.0 1.6 0.00 0.00 0.00 80 1020.7
20260504031536 15 0 0.0 0.0 0.00 0.00 0.00 80 1020.7
20260504031019 15 0 0.0 0.0 0.00 0.00 0.00 80 1020.6
20260504030520 15 0 0.0 1.6 0.00 0.00 0.00 80 1020.7
20260504030039 15 0 0.0 1.6 0.00 0.00 0.00 80 1020.7
20260504025522 15 0 0.0 1.6 0.00 0.00 0.00 79 1020.6
20260504025022 15 0 0.0 3.2 0.00 0.00 0.00 79 1020.6
20260504024535 15 0 0.0 3.2 0.00 0.00 0.00 79 1020.5
20260504024021 15 0 0.0 1.6 0.00 0.00 0.00 79 1020.6
20260504023522 16 0 0.0 0.0 0.00 0.00 0.00 79 1020.4
20260504023035 16 0 0.0 0.0 0.00 0.00 0.00 77 1020.3
20260504022521 16 0 0.0 0.0 0.00 0.00 0.00 77 1020.3
20260504022022 16 0 0.0 1.6 0.00 0.00 0.00 76 1020.3
20260504021538 16 0 0.0 3.2 0.00 0.00 0.00 76 1020.3
20260504021020 16 0 0.0 3.2 0.00 0.00 0.00 76 1020.2
20260504020519 16 144 0.0 3.2 0.00 0.00 0.00 75 1020.2
20260504020036 17 144 0.0 3.2 0.00 0.00 0.00 74 1020.1
20260504015522 17 0 0.0 1.6 0.00 0.00 0.00 74 1019.9
20260504015022 17 144 0.0 1.6 0.00 0.00 0.00 73 1019.8
20260504014536 17 0 0.0 0.0 0.00 0.00 0.00 72 1019.8
20260504014018 17 0 0.0 0.0 0.00 0.00 0.00 71 1019.7
20260504013518 18 0 0.0 3.2 0.00 0.00 0.00 71 1019.7
20260504013046 18 0 0.0 3.2 0.00 0.00 0.00 70 1019.6
20260504012525 18 144 0.0 1.6 0.00 0.00 0.00 67 1019.6
20260504012022 18 0 0.0 0.0 0.00 0.00 0.00 67 1019.6
20260504011537 19 0 0.0 0.0 0.00 0.00 0.00 67 1019.5
20260504011019 19 0 0.0 0.0 0.00 0.00 0.00 65 1019.4
20260504010520 20 0 0.0 1.6 0.00 0.00 0.00 66 1019.4
20260504010035 20 0 0.0 1.6 0.00 0.00 0.00 66 1019.4
20260504005519 20 0 0.0 3.2 0.00 0.00 0.00 66 1019.5
20260504005019 20 144 0.0 3.2 0.00 0.00 0.00 64 1019.4
20260504004532 20 0 0.0 3.2 0.00 0.00 0.00 61 1019.5
20260504004023 21 0 0.0 1.6 0.00 0.00 0.00 59 1019.4
20260504003520 21 0 0.0 0.0 0.00 0.00 0.00 59 1019.4
20260504003036 21 0 0.0 0.0 0.00 0.00 0.00 57 1019.4
20260504002522 21 0 0.0 0.0 0.00 0.00 0.00 56 1019.4
20260504002021 22 0 0.0 1.6 0.00 0.00 0.00 54 1019.3
20260504001536 22 0 0.0 4.8 0.00 0.00 0.00 53 1019.3
20260504001022 22 0 1.6 4.8 0.00 0.00 0.00 51 1019.4
20260504000521 23 350 1.6 4.8 0.00 0.00 0.00 50 1019.4
20260504000036 23 0 0.0 1.6 0.00 0.00 0.00 47 1019.4
20260503235518 23 0 0.0 3.2 0.00 0.00 0.00 48 1019.5
20260503235019 24 0 0.0 3.2 0.00 0.00 0.00 46 1019.5
20260503234535 24 350 0.0 4.8 0.00 0.00 0.00 43 1019.5
20260503234022 24 0 0.0 4.8 0.00 0.00 0.00 44 1019.5
20260503233521 24 350 1.6 8.0 0.00 0.00 0.00 41 1019.5
20260503233040 25 350 0.0 8.0 0.00 0.00 0.00 41 1019.5
20260503232520 25 360 1.6 6.4 0.00 0.00 0.00 40 1019.6
20260503232019 25 333 1.6 6.4 0.00 0.00 0.00 40 1019.5
20260503231536 25 327 1.6 6.4 0.00 0.00 0.00 39 1019.6
20260503231020 25 17 1.6 6.4 0.00 0.00 0.00 41 1019.5
20260503230525 25 0 1.6 8.0 0.00 0.00 0.00 41 1019.6
20260503230037 25 346 3.2 8.0 0.00 0.00 0.00 41 1019.5
20260503225520 25 5 1.6 4.8 0.00 0.00 0.00 39 1019.5
20260503225022 25 5 0.0 6.4 0.00 0.00 0.00 38 1019.5
20260503224536 25 5 1.6 6.4 0.00 0.00 0.00 38 1019.5
20260503224022 25 350 1.6 8.0 0.00 0.00 0.00 39 1019.6
20260503223521 25 297 1.6 8.0 0.00 0.00 0.00 41 1019.7
20260503223036 25 348 1.6 8.0 0.00 0.00 0.00 41 1019.7
20260503222521 25 346 1.6 8.0 0.00 0.00 0.00 41 1019.7
20260503222020 25 348 1.6 12.9 0.00 0.00 0.00 43 1019.7
20260503221543 25 12 4.8 14.5 0.00 0.00 0.00 40 1019.7
20260503221020 24 331 3.2 14.5 0.00 0.00 0.00 41 1019.8
20260503220520 24 331 3.2 9.7 0.00 0.00 0.00 43 1019.8
20260503220040 24 78 3.2 8.0 0.00 0.00 0.00 43 1019.8
20260503215521 23 319 1.6 6.4 0.00 0.00 0.00 44 1019.8
20260503215025 23 0 0.0 4.8 0.00 0.00 0.00 41 1020.0
20260503214539 23 0 1.6 4.8 0.00 0.00 0.00 43 1020.0
20260503214018 23 275 1.6 6.4 0.00 0.00 0.00 42 1020.0
20260503213519 23 275 3.2 9.7 0.00 0.00 0.00 42 1020.1
20260503213043 23 278 1.6 12.9 0.00 0.00 0.00 44 1020.2
20260503212521 23 285 6.4 12.9 0.00 0.00 0.00 43 1020.2
20260503212021 23 333 3.2 8.0 0.00 0.00 0.00 43 1020.3
20260503211537 23 75 1.6 9.7 0.00 0.00 0.00 48 1020.4
20260503211021 23 91 3.2 9.7 0.00 0.00 0.00 43 1020.4
20260503210525 23 84 3.2 8.0 0.00 0.00 0.00 44 1020.4
20260503210035 23 333 3.2 9.7 0.00 0.00 0.00 42 1020.5
20260503205519 23 21 3.2 11.3 0.00 0.00 0.00 43 1020.7
20260503205038 23 13 4.8 11.3 0.00 0.00 0.00 46 1020.7
20260503204535 23 148 0.0 6.4 0.00 0.00 0.00 45 1020.7
20260503204022 23 90 1.6 6.4 0.00 0.00 0.00 48 1020.8
20260503203522 23 126 0.0 4.8 0.00 0.00 0.00 46 1021.0
20260503203034 22 148 1.6 11.3 0.00 0.00 0.00 43 1021.0
20260503202518 22 0 3.2 14.5 0.00 0.00 0.00 43 1021.0
20260503202021 23 169 3.2 14.5 0.00 0.00 0.00 43 1021.2
20260503201539 23 312 1.6 8.0 0.00 0.00 0.00 41 1021.3
20260503201018 23 311 0.0 8.0 0.00 0.00 0.00 43 1021.5
20260503200520 23 309 3.2 8.0 0.00 0.00 0.00 42 1021.5
20260503200037 23 312 3.2 12.9 0.00 0.00 0.00 43 1021.7
20260503195519 23 336 4.8 20.9 0.00 0.00 0.00 42 1021.7
20260503195020 24 272 4.8 20.9 0.00 0.00 0.00 42 1021.8
20260503194538 24 310 4.8 20.9 0.00 0.00 0.00 42 1021.9
20260503194020 23 73 1.6 11.3 0.00 0.00 0.00 50 1022.0
20260503193522 23 16 3.2 11.3 0.00 0.00 0.00 43 1022.1
20260503193036 23 152 0.0 17.7 0.00 0.00 0.00 44 1022.2
20260503192521 23 152 8.0 17.7 0.00 0.00 0.00 47 1022.2
20260503192018 23 101 1.6 8.0 0.00 0.00 0.00 43 1022.3
20260503191534 23 84 1.6 9.7 0.00 0.00 0.00 46 1022.4
20260503191021 23 97 0.0 9.7 0.00 0.00 0.00 48 1022.5
20260503190523 23 97 3.2 9.7 0.00 0.00 0.00 44 1022.5
20260503190049 23 352 4.8 9.7 0.00 0.00 0.00 43 1022.6
20260503185520 23 35 1.6 11.3 0.00 0.00 0.00 48 1022.6
20260503185020 23 0 1.6 11.3 0.00 0.00 0.00 40 1022.7
20260503184536 23 336 3.2 9.7 0.00 0.00 0.00 47 1022.8
20260503184019 23 0 0.0 12.9 0.00 0.00 0.00 43 1022.9
20260503183518 23 275 3.2 12.9 0.00 0.00 0.00 46 1022.9
20260503183042 23 281 3.2 8.0 0.00 0.00 0.00 44 1023.0
20260503182519 22 331 3.2 6.4 0.00 0.00 0.00 45 1023.0
20260503182019 22 320 3.2 9.7 0.00 0.00 0.00 42 1023.1
20260503181536 23 325 3.2 9.7 0.00 0.00 0.00 43 1023.1
20260503181019 22 267 3.2 9.7 0.00 0.00 0.00 47 1023.3
20260503180519 22 270 3.2 11.3 0.00 0.00 0.00 43 1023.4
20260503180051 22 250 4.8 11.3 0.00 0.00 0.00 42 1023.4
20260503175519 23 309 3.2 8.0 0.00 0.00 0.00 45 1023.3
20260503175022 23 308 3.2 8.0 0.00 0.00 0.00 45 1023.4
20260503174648 22 23 3.2 8.0 0.00 0.00 0.00 45 1023.4
20260503174022 23 31 3.2 8.0 0.00 0.00 0.00 52 1023.5
20260503173521 22 312 1.6 9.7 0.00 0.00 0.00 45 1023.6
20260503173056 22 314 3.2 11.3 0.00 0.00 0.00 42 1023.5
20260503172521 22 351 3.2 14.5 0.00 0.00 0.00 46 1023.6
20260503172021 22 348 4.8 14.5 0.00 0.00 0.00 45 1023.7
20260503171542 22 37 4.8 9.7 0.00 0.00 0.00 44 1023.9
20260503171022 22 78 1.6 9.7 0.00 0.00 0.00 48 1023.9
20260503170537 22 109 3.2 9.7 0.00 0.00 0.00 49 1024.1
20260503150518 20 352 1.6 6.4 0.00 0.00 0.00 56 1024.5